Weather History for Marrakech, Morocco

Change the Weather History Date:

Tuesday, August 7, 2012

  Actual Average Record
Temperature  
Mean Temperature 82 °F -  
Max Temperature 99 °F 93 °F 111 °F (2005)
Min Temperature 64 °F 66 °F 62 °F (1997)
Cooling Degree Days 16    
Growing Degree Days 32 (Base 50)    
Moisture  
Dew Point 56 °F    
Average Humidity 44    
Maximum Humidity 73    
Minimum Humidity 15    
Precipitation  
Precipitation 0.00 in 0.01 in - ()
Sea Level Pressure  
Sea Level Pressure 29.99 in    
Wind  
Wind Speed 5 mph ()    
Max Wind Speed 13 mph    
Max Gust Speed -    
Visibility 6.1 miles    
Events      
Averages and records for this station are not official NWS values.
T = Trace of Precipitation, MM = Missing Value Source: Averaged Metar Reports

Daily Weather History Graph

Daily Weather History Graph

Search for Another Location

Airport:

Trip Planner

Search our weather history database for the weather conditions in past years. The results will help you decide how hot, cold, wet, or windy it might be!

Date:

Astronomy

Aug. 07, 2012 Rise Set
Actual Time 5:52 AM WET 7:22 PM WET
Civil Twilight 5:26 AM WET 7:49 PM WET
Nautical Twilight 4:54 AM WET 8:20 PM WET
Astronomical Twilight 4:22 AM WET 8:52 PM WET
Moon 10:23 PM WET (8/7) 11:00 AM WET (8/7)
Length of Visible Light 14h 22m
Length of Day
13h 30m
Waning Gibbous, 71% of the Moon is Illuminated
Aug 7
Waning Gibbous
Aug 9
Last Quarter
Aug 17
New
Aug 24
First Quarter
Aug 31
Full

Hourly Weather History & Observations

Time (WET) Temp. Heat Index Dew Point Humidity Pressure Visibility Wind Dir Wind Speed Gust Speed Precip Events Conditions
12:00 AM 73 °F - 54 °F 41% 29.95 in 6 mi NE 3.5 mph - -  
12:00 AM 73.4 °F - 53.6 °F 50% 30.01 in - NE 4.6 mph - N/A   Clear
12:30 AM 71.6 °F - 55.4 °F 57% 30.01 in - SW 5.8 mph - N/A   Clear
1:00 AM 69.8 °F - 55.4 °F 60% 30.01 in - WSW 3.5 mph - N/A   Clear
1:30 AM 69.8 °F - 55.4 °F 60% 30.01 in - SW 8.1 mph - N/A   Clear
2:00 AM 68.0 °F - 55.4 °F 64% 30.01 in - SW 6.9 mph - N/A   Clear
2:30 AM 68.0 °F - 55.4 °F 64% 30.01 in - SW 5.8 mph - N/A   Clear
3:00 AM 66 °F - 55 °F 58% 29.96 in 6 mi WSW 4.6 mph - -  
3:00 AM 66.2 °F - 55.4 °F 68% 30.01 in - WSW 5.8 mph - N/A   Clear
3:30 AM 66.2 °F - 55.4 °F 68% 29.98 in - Variable 1.2 mph - N/A   Clear
4:00 AM 68.0 °F - 55.4 °F 64% 29.98 in - SW 6.9 mph - N/A   Clear
5:00 AM 66.2 °F - 55.4 °F 68% 29.98 in - WSW 5.8 mph - N/A   Clear
5:30 AM 64.4 °F - 55.4 °F 73% 30.01 in - WSW 4.6 mph - N/A   Clear
6:00 AM 64 °F - 55 °F 64% 29.97 in 6 mi SW 4.6 mph - -  
6:00 AM 64.4 °F - 55.4 °F 73% 30.01 in - SW 4.6 mph - N/A   Clear
6:30 AM 64.4 °F - 55.4 °F 73% 30.01 in - SW 5.8 mph - N/A   Clear
7:00 AM 68.0 °F - 55.4 °F 64% 30.01 in - SW 4.6 mph - N/A   Clear
7:30 AM 69.8 °F - 57.2 °F 64% 30.01 in - WSW 5.8 mph - N/A   Clear
8:00 AM 71.6 °F - 57.2 °F 60% 30.01 in - WSW 4.6 mph - N/A   Clear
8:30 AM 75.2 °F - 57.2 °F 53% 30.01 in - WNW 5.8 mph - N/A   Clear
9:00 AM 77 °F - 57 °F 39% 29.95 in 6 mi WNW 4.6 mph - -  
9:00 AM 77.0 °F - 57.2 °F 50% 30.01 in - WNW 4.6 mph - N/A   Clear
9:30 AM 78.8 °F - 57.2 °F 47% 30.01 in - NNW 4.6 mph - N/A   Clear
10:00 AM 80.6 °F 80.8 °F 57.2 °F 45% 30.01 in - North 3.5 mph - N/A   Clear
10:30 AM 84.2 °F 83.5 °F 57.2 °F 40% 30.01 in - NNW 4.6 mph - N/A   Clear
11:00 AM 84.2 °F 83.5 °F 57.2 °F 40% 30.01 in 6.2 mi NW 5.8 mph - N/A   Unknown
11:30 AM 87.8 °F 86.5 °F 57.2 °F 35% 30.01 in 6.2 mi NNW 4.6 mph - N/A   Unknown
12:00 PM 88 °F - 57 °F 25% 29.90 in 6 mi West 4.6 mph - -  
12:00 PM 87.8 °F 86.5 °F 57.2 °F 35% 30.01 in - Variable 5.8 mph - N/A   Clear
12:30 PM 89.6 °F 87.7 °F 55.4 °F 31% 30.01 in - North 5.8 mph - N/A   Clear
1:00 PM 93.2 °F 91.3 °F 55.4 °F 28% 29.98 in - Variable 3.5 mph - N/A   Clear
1:30 PM 93.2 °F 91.3 °F 55.4 °F 28% 29.98 in 6.2 mi West 3.5 mph - N/A   Scattered Clouds
2:00 PM 95.0 °F 93.0 °F 55.4 °F 26% 29.98 in 6.2 mi Variable 3.5 mph - N/A   Scattered Clouds
2:30 PM 96.8 °F 95.1 °F 55.4 °F 25% 29.95 in 6.2 mi Variable 2.3 mph - N/A   Scattered Clouds
3:00 PM 97 °F - 54 °F 15% 29.83 in 6 mi SW 4.6 mph - -   Partly Cloudy
3:00 PM 96.8 °F 95.1 °F 55.4 °F 25% 29.95 in 6.2 mi Variable 3.5 mph - N/A   Scattered Clouds
3:30 PM 96.8 °F 94.4 °F 53.6 °F 23% 29.95 in 6.2 mi WNW 8.1 mph - N/A   Scattered Clouds
4:00 PM 98.6 °F 96.4 °F 53.6 °F 22% 29.95 in 6.2 mi West 6.9 mph - N/A   Scattered Clouds
4:30 PM 98.6 °F 96.4 °F 53.6 °F 22% 29.95 in 6.2 mi NNW 8.1 mph - N/A   Scattered Clouds
5:00 PM 96.8 °F 95.1 °F 55.4 °F 25% 29.95 in 6.2 mi SW 11.5 mph - N/A   Scattered Clouds
6:00 PM 97 °F - 54 °F 15% 29.83 in 6 mi SSW 9.2 mph - -   Scattered Clouds
6:00 PM 96.8 °F 94.4 °F 53.6 °F 23% 29.95 in 6.2 mi SSW 9.2 mph - N/A   Partly Cloudy
6:30 PM 95.0 °F 92.7 °F 53.6 °F 25% 29.95 in 6.2 mi SW 9.2 mph - N/A   Partly Cloudy
7:00 PM 89.6 °F 88.9 °F 59.0 °F 36% 29.98 in 6.2 mi West 12.7 mph - N/A   Partly Cloudy
7:30 PM 86.0 °F 85.4 °F 59.0 °F 40% 30.01 in 6.2 mi West 11.5 mph - N/A   Partly Cloudy
8:00 PM 84.2 °F 83.8 °F 59.0 °F 42% 30.01 in 6.2 mi WSW 9.2 mph - N/A   Partly Cloudy
8:30 PM 84.2 °F 83.8 °F 59.0 °F 42% 30.01 in 6.2 mi WSW 5.8 mph - N/A   Partly Cloudy
9:00 PM 85 °F - 55 °F 26% 29.93 in 6 mi North 4.6 mph - -   Scattered Clouds
9:00 PM 86.0 °F 84.5 °F 55.4 °F 35% 30.04 in 6.2 mi North 4.6 mph - N/A   Partly Cloudy
9:30 PM 84.2 °F 83.0 °F 55.4 °F 37% 30.04 in 6.2 mi NW 3.5 mph - N/A   Partly Cloudy
10:00 PM 80.6 °F 80.8 °F 57.2 °F 45% 30.04 in - SW 5.8 mph - N/A   Clear
10:30 PM 80.6 °F 80.8 °F 57.2 °F 45% 30.04 in - SW 6.9 mph - N/A   Clear
11:00 PM 78.8 °F - 57.2 °F 47% 30.04 in - WSW 6.9 mph - N/A   Clear
11:30 PM 78.8 °F - 57.2 °F 47% 30.04 in - SW 6.9 mph - N/A   Clear